Weather History for Spartanburg, SC

Change the Weather History Date:

Saturday, August 24, 2013

  Actual Average (KGSP) Record (KGSP)
Temperature  
Mean Temperature 74 °F 78 °F  
Max Temperature 82 °F 88 °F 100 °F (1938)
Min Temperature 66 °F 68 °F 51 °F (1888)
Degree Days  
Heating Degree Days 0 0  
Month to date heating degree days 0  
Since 1 June heating degree days 2  
Since 1 July heating degree days 0  
Cooling Degree Days 9 13  
Month to date cooling degree days 337  
Year to date cooling degree days 1349  
Since 1 June cooling degree days 1148  
Growing Degree Days 24 (Base 50)    
Moisture  
Dew Point 64 °F    
Average Humidity 73    
Maximum Humidity 94    
Minimum Humidity 48    
Precipitation  
Precipitation 0.00 in 0.15 in 2.11 in (1961)
Month to date precipitation 3.55  
Year to date precipitation 31.58  
Snow  
Snow 0.00 in 0.00 in 0.00 in ()
Month to date snowfall 0.0  
Since 1 June snowfall 0.0  
Since 1 July snowfall 0.0  
Snow Depth -    
Sea Level Pressure  
Sea Level Pressure 30.21 in    
Wind  
Wind Speed 6 mph (NE)    
Max Wind Speed 17 mph    
Max Gust Speed 18 mph    
Visibility 10 miles    
Events      
T = Trace of Precipitation, MM = Missing Value Source: NWS Daily Summary

Daily Weather History Graph

Daily Weather History Graph

Search for Another Location

Airport:

Trip Planner

Search our weather history database for the weather conditions in past years. The results will help you decide how hot, cold, wet, or windy it might be!

Date:

Astronomy

Aug. 24, 2013 Rise Set
Actual Time 6:54 AM EDT 8:04 PM EDT
Civil Twilight 6:28 AM EDT 8:30 PM EDT
Nautical Twilight 5:57 AM EDT 9:01 PM EDT
Astronomical Twilight 5:25 AM EDT 9:34 PM EDT
Moon 10:10 PM EDT (8/24) 10:41 AM EDT (8/24)
Length of Visible Light 14h 02m
Length of Day
13h 09m
Waning Gibbous, 84% of the Moon is Illuminated
Aug 24
Waning Gibbous
Aug 28
Last Quarter
Sep 5
New
Sep 12
First Quarter
Sep 19
Full

Hourly Weather History & Observations

Time (EDT) Temp. Heat Index Dew Point Humidity Pressure Visibility Wind Dir Wind Speed Gust Speed Precip Events Conditions
12:15 AM 71.6 °F - 69.8 °F 94% 30.09 in 10.0 mi NW 3.5 mph - N/A   Clear
12:35 AM 71.6 °F - 69.8 °F 94% 30.09 in 10.0 mi Calm Calm - N/A   Clear
12:55 AM 71.6 °F - 69.8 °F 94% 30.09 in 10.0 mi Calm Calm - N/A   Scattered Clouds
1:15 AM 71.6 °F - 69.8 °F 94% 30.09 in 7.0 mi Calm Calm - N/A   Clear
1:35 AM 71.6 °F - 69.8 °F 94% 30.09 in 10.0 mi NNE 3.5 mph - N/A   Clear
1:55 AM 71.6 °F - 69.8 °F 94% 30.10 in 10.0 mi NE 9.2 mph - N/A   Clear
2:15 AM 71.6 °F - 69.8 °F 94% 30.10 in 10.0 mi NE 8.1 mph - N/A   Clear
2:35 AM 71.6 °F - 69.8 °F 94% 30.10 in 10.0 mi NE 9.2 mph - N/A   Clear
2:55 AM 71.6 °F - 69.8 °F 94% 30.11 in 10.0 mi ENE 6.9 mph - N/A   Clear
3:15 AM 71.6 °F - 68.0 °F 88% 30.12 in 10.0 mi NE 6.9 mph - N/A   Scattered Clouds
3:35 AM 69.8 °F - 68.0 °F 94% 30.12 in 10.0 mi NE 6.9 mph - N/A   Mostly Cloudy
3:55 AM 69.8 °F - 66.2 °F 88% 30.13 in 10.0 mi NE 8.1 mph - N/A   Mostly Cloudy
4:15 AM 69.8 °F - 66.2 °F 88% 30.13 in 10.0 mi NE 8.1 mph - N/A   Scattered Clouds
4:35 AM 69.8 °F - 66.2 °F 88% 30.15 in 10.0 mi NE 8.1 mph - N/A   Scattered Clouds
4:55 AM 68.0 °F - 66.2 °F 94% 30.15 in 10.0 mi NNE 8.1 mph - N/A   Clear
5:15 AM 68.0 °F - 64.4 °F 88% 30.16 in 10.0 mi NNE 8.1 mph - N/A   Clear
5:35 AM 68.0 °F - 64.4 °F 88% 30.17 in 10.0 mi NE 8.1 mph - N/A   Clear
5:55 AM 68.0 °F - 64.4 °F 88% 30.17 in 10.0 mi NE 5.8 mph - N/A   Clear
6:15 AM 66.2 °F - 62.6 °F 88% 30.18 in 10.0 mi NE 6.9 mph - N/A   Scattered Clouds
6:35 AM 66.2 °F - 62.6 °F 88% 30.18 in 10.0 mi NE 5.8 mph - N/A   Clear
6:55 AM 66.2 °F - 62.6 °F 88% 30.19 in 10.0 mi NE 5.8 mph - N/A   Clear
7:15 AM 66.2 °F - 62.6 °F 88% 30.20 in 10.0 mi NE 6.9 mph - N/A   Clear
7:35 AM 66.2 °F - 62.6 °F 88% 30.21 in 10.0 mi NE 8.1 mph - N/A   Scattered Clouds
7:55 AM 68.0 °F - 62.6 °F 83% 30.22 in 10.0 mi NE 8.1 mph - N/A   Scattered Clouds
8:15 AM 68.0 °F - 62.6 °F 83% 30.22 in 10.0 mi NE 11.5 mph 16.1 mph N/A   Mostly Cloudy
8:35 AM 68.0 °F - 62.6 °F 83% 30.23 in 10.0 mi NE 10.4 mph - N/A   Scattered Clouds
8:55 AM 69.8 °F - 62.6 °F 78% 30.23 in 10.0 mi NNE 17.3 mph - N/A   Clear
9:15 AM 68.0 °F - 62.6 °F 83% 30.24 in 10.0 mi NE 13.8 mph - N/A   Mostly Cloudy
9:35 AM 69.8 °F - 64.4 °F 83% 30.24 in 10.0 mi NE 13.8 mph 18.4 mph N/A   Overcast
9:55 AM 69.8 °F - 64.4 °F 83% 30.25 in 10.0 mi NNE 13.8 mph 18.4 mph N/A   Scattered Clouds
10:15 AM 71.6 °F - 64.4 °F 78% 30.25 in 10.0 mi NE 9.2 mph - N/A   Clear
10:35 AM 73.4 °F - 64.4 °F 73% 30.26 in 10.0 mi NE 10.4 mph - N/A   Scattered Clouds
10:55 AM 75.2 °F - 64.4 °F 69% 30.26 in 10.0 mi NE 10.4 mph - N/A   Mostly Cloudy
11:15 AM 73.4 °F - 64.4 °F 73% 30.26 in 10.0 mi NE 10.4 mph 18.4 mph N/A   Mostly Cloudy
11:35 AM 75.2 °F - 64.4 °F 69% 30.26 in 10.0 mi NE 11.5 mph 17.3 mph N/A   Mostly Cloudy
11:55 AM 78.8 °F - 64.4 °F 61% 30.26 in 10.0 mi East 10.4 mph 16.1 mph N/A   Scattered Clouds
12:15 PM 78.8 °F - 64.4 °F 61% 30.25 in 10.0 mi NE 10.4 mph - N/A   Scattered Clouds
12:35 PM 78.8 °F - 64.4 °F 61% 30.25 in 10.0 mi NE 11.5 mph - N/A   Scattered Clouds
12:55 PM 78.8 °F - 64.4 °F 61% 30.25 in 10.0 mi NE 12.7 mph 18.4 mph N/A   Scattered Clouds
1:15 PM 78.8 °F - 64.4 °F 61% 30.25 in 10.0 mi NE 9.2 mph - N/A   Scattered Clouds
1:35 PM 78.8 °F - 64.4 °F 61% 30.25 in 10.0 mi NE 9.2 mph - N/A   Mostly Cloudy
1:55 PM 80.6 °F 81.8 °F 62.6 °F 54% 30.25 in 10.0 mi ESE 9.2 mph - N/A   Scattered Clouds
2:15 PM 80.6 °F 81.8 °F 62.6 °F 54% 30.25 in 10.0 mi East 9.2 mph - N/A   Scattered Clouds
2:35 PM 82.4 °F 83.9 °F 64.4 °F 54% 30.25 in 10.0 mi NE 6.9 mph - N/A   Scattered Clouds
2:55 PM 82.4 °F 83.9 °F 64.4 °F 54% 30.24 in 10.0 mi East 6.9 mph - N/A   Scattered Clouds
3:15 PM 82.4 °F 83.9 °F 64.4 °F 54% 30.24 in 7.0 mi ENE 5.8 mph - N/A   Scattered Clouds
3:35 PM 82.4 °F 83.4 °F 62.6 °F 51% 30.24 in 10.0 mi ENE 6.9 mph - N/A   Scattered Clouds
3:55 PM 82.4 °F 83.4 °F 62.6 °F 51% 30.23 in 10.0 mi NE 9.2 mph - N/A   Scattered Clouds
4:15 PM 82.4 °F 83.4 °F 62.6 °F 51% 30.23 in 7.0 mi ENE 6.9 mph - N/A   Scattered Clouds
4:35 PM 80.6 °F 81.8 °F 62.6 °F 54% 30.23 in 10.0 mi ENE 3.5 mph - N/A   Scattered Clouds
4:55 PM 82.4 °F 83.4 °F 62.6 °F 51% 30.23 in 10.0 mi ENE 6.9 mph - N/A   Clear
5:15 PM 82.4 °F 83.4 °F 62.6 °F 51% 30.23 in 10.0 mi ENE 6.9 mph - N/A   Scattered Clouds
5:35 PM 82.4 °F 82.9 °F 60.8 °F 48% 30.23 in 10.0 mi ENE 3.5 mph - N/A   Scattered Clouds
5:55 PM 80.6 °F 81.8 °F 62.6 °F 54% 30.23 in 10.0 mi ENE 5.8 mph - N/A   Clear
6:15 PM 80.6 °F 81.8 °F 62.6 °F 54% 30.23 in 10.0 mi East 5.8 mph - N/A   Clear
6:35 PM 80.6 °F 81.8 °F 62.6 °F 54% 30.23 in 10.0 mi ENE 4.6 mph - N/A   Clear
6:55 PM 80.6 °F 81.8 °F 62.6 °F 54% 30.23 in 10.0 mi ENE 4.6 mph - N/A   Clear
7:15 PM 78.8 °F - 62.6 °F 57% 30.23 in 10.0 mi NE 5.8 mph - N/A   Clear
7:35 PM 78.8 °F - 62.6 °F 57% 30.23 in 10.0 mi NE 5.8 mph - N/A   Clear
7:55 PM 77.0 °F - 62.6 °F 61% 30.24 in 10.0 mi ENE 3.5 mph - N/A   Clear
8:15 PM 75.2 °F - 62.6 °F 65% 30.24 in 10.0 mi NE 3.5 mph - N/A   Clear
8:35 PM 73.4 °F - 60.8 °F 65% 30.25 in 10.0 mi ENE 3.5 mph - N/A   Clear
8:55 PM 73.4 °F - 62.6 °F 69% 30.25 in 10.0 mi NE 3.5 mph - N/A   Clear
9:15 PM 71.6 °F - 62.6 °F 73% 30.26 in 10.0 mi NE 3.5 mph - N/A   Clear
9:35 PM 71.6 °F - 62.6 °F 73% 30.27 in 10.0 mi NE 3.5 mph - N/A   Clear
9:55 PM 71.6 °F - 62.6 °F 73% 30.27 in 10.0 mi NE 3.5 mph - N/A   Clear
10:15 PM 71.6 °F - 62.6 °F 73% 30.28 in 10.0 mi NE 3.5 mph - N/A   Clear
10:35 PM 69.8 °F - 62.6 °F 78% 30.29 in 10.0 mi Calm Calm - N/A   Clear
10:55 PM 69.8 °F - 60.8 °F 73% 30.29 in 10.0 mi NE 3.5 mph - N/A   Clear
11:15 PM 69.8 °F - 60.8 °F 73% 30.30 in 10.0 mi NE 3.5 mph - N/A   Clear
11:35 PM 68.0 °F - 60.8 °F 78% 30.30 in 10.0 mi NNE 3.5 mph - N/A   Clear
11:55 PM 68.0 °F - 62.6 °F 83% 30.30 in 10.0 mi NNE 4.6 mph - N/A   Clear